This demonstration page uses our WeatherBlox Daily Observations layout. Learn more.

Left ArrowRight Arrow

Hourly Observations for July 5, 2018

Temp ( °F °C ) Dew Point ( °F °C ) Humidity (%) Winds ( mph kmh ) Pressure ( in mb ) Visibility ( mi km ) Precip ( " mm )
12:59 am 00:59 Partly Cloudy 79 26.1 73 22.8 82 82 E 3 6 30.27 1025 10 16 0.00 0.00
1:59 am 01:59 Partly Cloudy 79 26.1 74 23.3 85 85 Calm 30.27 1025 10 16 0.00 0.00
2:59 am 02:59 Partly Cloudy 76 24.4 73 22.8 91 91 Calm 30.26 1025 10 16 0.00 0.00
3:59 am 03:59 Partly Cloudy 76 24.4 73 22.8 91 91 Calm 30.27 1025 10 16 0.00 0.00
4:59 am 04:59 Partly Cloudy 76 24.4 73 22.8 91 91 Calm 30.27 1025 10 16 0.00 0.00
5:59 am 05:59 Partly Cloudy 76 24.4 74 23.3 94 94 Calm 30.28 1025 8 13 0.00 0.00
6:59 am 06:59 Partly Cloudy 80 26.7 76 24.4 87 87 Calm 30.29 1026 10 16 0.00 0.00
7:59 am 07:59 Partly Cloudy 82 27.8 75 23.9 79 79 Calm 30.30 1026 10 16 0.00 0.00
8:59 am 08:59 Partly Cloudy 82 27.8 74 23.3 77 77 SE 3 6 30.30 1026 10 16 0.00 0.00
9:59 am 09:59 Mostly Cloudy with Heavy Rain 78 25.6 74 23.3 87 87 NE 9 15 30.30 1026 5 8 0.13 3.30
10:26 am 10:26 Cloudy with Thunderstorms 78 25.6 73 22.8 85 85 Calm 30.33 1027 4 6 0.10 2.54
10:31 am 10:31 Cloudy with Strong Thunderstorms 77 25 74 23.3 90 90 Calm 30.33 1027 2 3 0.13 3.30
10:36 am 10:36 Cloudy with Strong Thunderstorms 76 24.4 73 22.8 91 91 Calm 30.33 1027 1 2 0.14 3.56
10:59 am 10:59 Mostly Cloudy with Thunderstorms 78 25.6 74 23.3 87 87 NNE 5 7 30.30 1026 4 6 0.47 11.94
11:28 am 11:28 Mostly Cloudy 82 27.8 71 21.7 69 69 VRB 3 6 30.30 1026 10 16 0.06 1.52
11:59 am 11:59 Mostly Cloudy 84 28.9 74 23.3 72 72 SW 6 9 30.29 1026 10 16 0.11 2.79
12:59 pm 12:59 Partly Cloudy 88 31.1 73 22.8 61 61 VRB 3 6 30.29 1026 10 16 0.00 0.00
1:59 pm 13:59 Mostly Cloudy with Light Rain 82 27.8 75 23.9 79 79 ESE 8 13 30.28 1026 10 16 0.00 0.03
2:59 pm 14:59 Partly Cloudy 88 31.1 73 22.8 61 61 SE 3 6 30.26 1025 10 16 0.10 2.54
3:59 pm 15:59 Partly Cloudy 87 30.6 74 23.3 65 65 SE 6 9 30.24 1024 10 16 0.00 0.00
4:59 pm 16:59 Partly Cloudy 88 31.1 74 23.3 63 63 SSE 6 9 30.22 1024 10 16 0.00 0.00
5:59 pm 17:59 Partly Cloudy 88 31.1 74 23.3 63 63 SE 8 13 30.21 1023 10 16 0.00 0.00
6:59 pm 18:59 Partly Cloudy 85 29.4 73 22.8 68 68 SSE 8 13 30.21 1023 10 16 0.00 0.00
7:59 pm 19:59 Mostly Sunny 84 28.9 73 22.8 70 70 SSE 6 9 30.22 1023 10 16 0.00 0.00
8:59 pm 20:59 Mostly Clear 83 28.3 73 22.8 72 72 SSE 8 13 30.22 1023 10 16 0.00 0.00
9:59 pm 21:59 Clear 82 27.8 73 22.8 74 74 SSE 7 11 30.23 1024 10 16 0.00 0.00
10:59 pm 22:59 Clear 81 27.2 73 22.8 77 77 S 7 11 30.23 1024 10 16 0.00 0.00
11:59 pm 23:59 Clear 81 27.2 73 22.8 77 77 S 8 13 30.22 1023 10 16 0.00 0.00

Powered by AerisWeather